DAL1452 SEQM-SKRG

Flight info

Callsign DAL1452
Flight time 1h 7m
Altitude 34000
Route ARNOK3A ARNOK UP778 BOKAN UQ113 ULQ W3 ISVON ISVON4A
Aircraft B739/M-SDE2E3FGHIRWXY/LB1

Departure

Time 2026-05-08 17:30
Airport Mariscal Sucre International Airport (SEQM)

Arrival

Time 2026-05-08 18:38
Airport Jose Maria Córdova International Airport (SKRG)
Time Latitude Longitude Altitude Speed Heading
2026-05-08 16:45 -0.12555 -78.35912 7999 ft 0 kts 269°
2026-05-08 17:18 -0.12555 -78.35904 7999 ft 3 kts 271°
2026-05-08 17:18 -0.12557 -78.35884 7999 ft 3 kts 284°
2026-05-08 17:19 -0.12564 -78.35865 7999 ft 3 kts 306°
2026-05-08 17:19 -0.12576 -78.35854 7999 ft 3 kts 344°
2026-05-08 17:19 -0.12586 -78.35852 7999 ft 1 kts 358°
2026-05-08 17:19 -0.12589 -78.35852 7999 ft 0 kts 358°
2026-05-08 17:23 -0.12581 -78.35852 7999 ft 4 kts 359°
2026-05-08 17:23 -0.12530 -78.35844 7999 ft 11 kts 11°
2026-05-08 17:23 -0.12449 -78.35828 7999 ft 14 kts 10°
2026-05-08 17:23 -0.12365 -78.35778 7999 ft 16 kts 65°
2026-05-08 17:24 -0.12358 -78.35672 7999 ft 16 kts 92°
2026-05-08 17:24 -0.12446 -78.35613 7999 ft 18 kts 191°
2026-05-08 17:24 -0.12572 -78.35609 7999 ft 18 kts 173°
2026-05-08 17:24 -0.12687 -78.35599 7999 ft 14 kts 175°
2026-05-08 17:25 -0.12788 -78.35591 7999 ft 14 kts 175°
2026-05-08 17:25 -0.12886 -78.35580 7999 ft 15 kts 175°
2026-05-08 17:25 -0.12992 -78.35574 7999 ft 15 kts 177°
2026-05-08 17:25 -0.13102 -78.35572 7999 ft 16 kts 180°
2026-05-08 17:26 -0.13215 -78.35572 7999 ft 14 kts 180°
2026-05-08 17:26 -0.13319 -78.35572 7999 ft 15 kts 180°
2026-05-08 17:26 -0.13428 -78.35569 7999 ft 16 kts 178°
2026-05-08 17:26 -0.13522 -78.35567 7999 ft 12 kts 178°
2026-05-08 17:27 -0.13607 -78.35564 7999 ft 11 kts 178°
2026-05-08 17:27 -0.13692 -78.35561 7999 ft 13 kts 177°
2026-05-08 17:27 -0.13786 -78.35556 7999 ft 14 kts 177°
2026-05-08 17:27 -0.13888 -78.35550 7999 ft 15 kts 177°
2026-05-08 17:28 -0.13995 -78.35545 7999 ft 16 kts 177°
2026-05-08 17:28 -0.14106 -78.35540 7999 ft 16 kts 177°
2026-05-08 17:28 -0.14215 -78.35528 7999 ft 15 kts 149°
2026-05-08 17:28 -0.14252 -78.35443 7999 ft 14 kts 93°
2026-05-08 17:29 -0.14229 -78.35367 7999 ft 9 kts 15°
2026-05-08 17:29 -0.14198 -78.35366 7999 ft 2 kts 356°
2026-05-08 17:29 -0.14196 -78.35366 7999 ft 0 kts 356°
2026-05-08 17:29 -0.14084 -78.35373 7999 ft 35 kts 356°
2026-05-08 17:30 -0.13704 -78.35393 7999 ft 79 kts 357°
2026-05-08 17:30 -0.12953 -78.35428 7999 ft 138 kts 358°
2026-05-08 17:30 -0.11815 -78.35471 8084 ft 181 kts 358°
2026-05-08 17:30 -0.10501 -78.35524 8527 ft 204 kts 358°
2026-05-08 17:31 -0.08994 -78.35593 9160 ft 222 kts 358°
2026-05-08 17:31 -0.07347 -78.35838 9528 ft 257 kts 345°
2026-05-08 17:31 -0.05641 -78.36309 9790 ft 258 kts 344°
2026-05-08 17:31 -0.04009 -78.36768 10011 ft 261 kts 344°
2026-05-08 17:32 -0.02232 -78.37268 10292 ft 265 kts 344°
2026-05-08 17:32 -0.00532 -78.37929 10564 ft 265 kts 334°
2026-05-08 17:32 0.01113 -78.38701 10841 ft 264 kts 336°
2026-05-08 17:32 0.02848 -78.39432 11223 ft 265 kts 338°
2026-05-08 17:33 0.04553 -78.40077 11594 ft 268 kts 340°
2026-05-08 17:33 0.06311 -78.40690 11970 ft 270 kts 341°
2026-05-08 17:33 0.08146 -78.41320 12353 ft 279 kts 342°
2026-05-08 17:33 0.09977 -78.41941 12731 ft 281 kts 342°
2026-05-08 17:34 0.11830 -78.42567 13107 ft 280 kts 342°
2026-05-08 17:34 0.13710 -78.43012 13466 ft 289 kts 358°
2026-05-08 17:34 0.15784 -78.42693 13869 ft 308 kts 20°
2026-05-08 17:34 0.17652 -78.41617 14257 ft 321 kts 39°
2026-05-08 17:35 0.19328 -78.40036 14647 ft 331 kts 45°
2026-05-08 17:35 0.20908 -78.38439 15014 ft 331 kts 45°
2026-05-08 17:35 0.22580 -78.36781 15397 ft 333 kts 44°
2026-05-08 17:35 0.24238 -78.35168 15772 ft 335 kts 44°
2026-05-08 17:36 0.25898 -78.33572 16143 ft 337 kts 44°
2026-05-08 17:36 0.27628 -78.31925 16525 ft 341 kts 43°
2026-05-08 17:36 0.29360 -78.30286 16902 ft 342 kts 43°
2026-05-08 17:36 0.31097 -78.28651 17279 ft 343 kts 43°
2026-05-08 17:37 0.32833 -78.27022 17652 ft 344 kts 43°
2026-05-08 17:37 0.34590 -78.25378 18029 ft 346 kts 43°
2026-05-08 17:37 0.36333 -78.23749 18401 ft 348 kts 43°
2026-05-08 17:37 0.37631 -78.22537 18675 ft 350 kts 43°
2026-05-08 17:38 0.39430 -78.20859 19049 ft 359 kts 43°
2026-05-08 17:38 0.41255 -78.19158 19426 ft 366 kts 45°
2026-05-08 17:38 0.43121 -78.17419 19802 ft 366 kts 45°
2026-05-08 17:38 0.44970 -78.15696 20170 ft 370 kts 44°
2026-05-08 17:39 0.46889 -78.13910 20551 ft 376 kts 44°
2026-05-08 17:39 0.48805 -78.12126 20926 ft 380 kts 44°
2026-05-08 17:39 0.50752 -78.10422 21293 ft 380 kts 39°
2026-05-08 17:39 0.52891 -78.08807 21675 ft 382 kts 36°
2026-05-08 17:40 0.55030 -78.07241 22050 ft 383 kts 36°
2026-05-08 17:40 0.57204 -78.05642 22429 ft 385 kts 38°
2026-05-08 17:40 0.59317 -78.04081 22798 ft 389 kts 37°
2026-05-08 17:40 0.61530 -78.02442 23179 ft 392 kts 37°
2026-05-08 17:41 0.63673 -78.00852 23548 ft 391 kts 37°
2026-05-08 17:41 0.65878 -77.99213 23926 ft 393 kts 37°
2026-05-08 17:41 0.68094 -77.97565 24305 ft 395 kts 37°
2026-05-08 17:41 0.70305 -77.95919 24680 ft 399 kts 37°
2026-05-08 17:42 0.72530 -77.94262 25056 ft 401 kts 37°
2026-05-08 17:42 0.74775 -77.92591 25430 ft 404 kts 38°
2026-05-08 17:42 0.77037 -77.90906 25807 ft 407 kts 38°
2026-05-08 17:42 0.79316 -77.89215 26173 ft 410 kts 37°
2026-05-08 17:43 0.81745 -77.87665 26500 ft 414 kts 30°
2026-05-08 17:43 0.84312 -77.86323 26828 ft 418 kts 27°
2026-05-08 17:43 0.86915 -77.85011 27154 ft 421 kts 27°
2026-05-08 17:43 0.89526 -77.83697 27481 ft 424 kts 27°
2026-05-08 17:44 0.92196 -77.82353 27807 ft 427 kts 27°
2026-05-08 17:44 0.94839 -77.81023 28132 ft 429 kts 27°
2026-05-08 17:44 0.97506 -77.79680 28459 ft 431 kts 27°
2026-05-08 17:44 1.00185 -77.78331 28783 ft 433 kts 27°
2026-05-08 17:45 1.02880 -77.76974 29110 ft 434 kts 27°
2026-05-08 17:45 1.05558 -77.75625 29432 ft 435 kts 27°
2026-05-08 17:45 1.08245 -77.74272 29753 ft 436 kts 27°
2026-05-08 17:45 1.11007 -77.72880 30081 ft 438 kts 27°
2026-05-08 17:46 1.13744 -77.71502 30409 ft 439 kts 27°
2026-05-08 17:46 1.16475 -77.70127 30734 ft 440 kts 27°
2026-05-08 17:46 1.19218 -77.68745 31062 ft 441 kts 27°
2026-05-08 17:46 1.21926 -77.67381 31384 ft 441 kts 27°
2026-05-08 17:47 1.24691 -77.65988 31714 ft 441 kts 27°
2026-05-08 17:47 1.27424 -77.64611 32035 ft 441 kts 27°
2026-05-08 17:47 1.30181 -77.63222 32362 ft 441 kts 27°
2026-05-08 17:47 1.31975 -77.62319 32575 ft 441 kts 27°
2026-05-08 17:48 1.35594 -77.60495 33006 ft 440 kts 27°
2026-05-08 17:48 1.38355 -77.59104 33334 ft 439 kts 27°
2026-05-08 17:48 1.41077 -77.57733 33660 ft 438 kts 27°
2026-05-08 17:48 1.43816 -77.56353 33897 ft 439 kts 27°
2026-05-08 17:49 1.46559 -77.54971 34032 ft 443 kts 27°
2026-05-08 17:49 1.49340 -77.53569 34158 ft 447 kts 27°
2026-05-08 17:49 1.52065 -77.52197 34284 ft 450 kts 27°
2026-05-08 17:49 1.54889 -77.50773 34347 ft 456 kts 27°
2026-05-08 17:50 1.60579 -77.47906 34297 ft 458 kts 27°
2026-05-08 17:50 1.65311 -77.45521 34217 ft 454 kts 27°
2026-05-08 17:51 1.70875 -77.42717 34147 ft 452 kts 27°
2026-05-08 17:51 1.77450 -77.39403 34055 ft 449 kts 27°
2026-05-08 17:52 1.82101 -77.37058 34040 ft 451 kts 27°
2026-05-08 17:53 1.90592 -77.32778 34006 ft 453 kts 27°
2026-05-08 17:53 1.96181 -77.29960 33950 ft 448 kts 27°
2026-05-08 17:54 2.01743 -77.27156 34046 ft 454 kts 27°
2026-05-08 17:54 2.07482 -77.24262 34109 ft 462 kts 27°
2026-05-08 17:55 2.13167 -77.21395 34073 ft 454 kts 27°
2026-05-08 17:55 2.18775 -77.18568 34050 ft 453 kts 28°
2026-05-08 17:56 2.24441 -77.15710 34064 ft 458 kts 27°
2026-05-08 17:56 2.30043 -77.12884 34023 ft 451 kts 27°
2026-05-08 17:57 2.35665 -77.10048 33994 ft 449 kts 27°
2026-05-08 17:57 2.41239 -77.07236 33964 ft 451 kts 27°
2026-05-08 17:58 2.46818 -77.04421 33932 ft 448 kts 27°
2026-05-08 17:58 2.52380 -77.01615 33939 ft 449 kts 27°
2026-05-08 17:59 2.57956 -76.98801 34068 ft 457 kts 27°
2026-05-08 17:59 2.63650 -76.95927 34059 ft 456 kts 27°
2026-05-08 18:00 2.69265 -76.93093 33976 ft 447 kts 27°
2026-05-08 18:00 2.77700 -76.88835 34038 ft 455 kts 27°
2026-05-08 18:01 2.83284 -76.86016 33998 ft 450 kts 27°
2026-05-08 18:01 2.88923 -76.83168 34024 ft 454 kts 27°
2026-05-08 18:02 2.94591 -76.80306 34109 ft 462 kts 27°
2026-05-08 18:02 3.00370 -76.77388 34152 ft 463 kts 27°
2026-05-08 18:03 3.06033 -76.74527 34208 ft 459 kts 27°
2026-05-08 18:03 3.11749 -76.71639 34227 ft 458 kts 27°
2026-05-08 18:04 3.17460 -76.68754 34272 ft 460 kts 27°
2026-05-08 18:04 3.23205 -76.65851 34358 ft 463 kts 27°
2026-05-08 18:05 3.28902 -76.62972 34344 ft 461 kts 27°
2026-05-08 18:05 3.34665 -76.60060 34398 ft 464 kts 27°
2026-05-08 18:06 3.40432 -76.57144 34450 ft 464 kts 27°
2026-05-08 18:06 3.43255 -76.55717 34324 ft 460 kts 27°
2026-05-08 18:06 3.46140 -76.54258 34312 ft 459 kts 27°
2026-05-08 18:07 3.51760 -76.51416 34322 ft 463 kts 27°
2026-05-08 18:07 3.54730 -76.49915 34455 ft 463 kts 27°
2026-05-08 18:07 3.57571 -76.48478 34444 ft 465 kts 27°
2026-05-08 18:08 3.63332 -76.45564 34317 ft 463 kts 27°
2026-05-08 18:08 3.69070 -76.42661 34298 ft 464 kts 27°
2026-05-08 18:09 3.74874 -76.39725 34393 ft 464 kts 27°
2026-05-08 18:09 3.80610 -76.36822 34295 ft 461 kts 27°
2026-05-08 18:10 3.86337 -76.33924 34207 ft 463 kts 27°
2026-05-08 18:10 3.92073 -76.31021 34360 ft 462 kts 27°
2026-05-08 18:11 3.97819 -76.28111 34264 ft 459 kts 27°
2026-05-08 18:11 4.03500 -76.25233 34212 ft 457 kts 27°
2026-05-08 18:12 4.09151 -76.22369 34278 ft 461 kts 27°
2026-05-08 18:12 4.14776 -76.19223 34003 ft 461 kts 30°
2026-05-08 18:13 4.17518 -76.17652 33506 ft 457 kts 30°
2026-05-08 18:13 4.20282 -76.16077 33003 ft 454 kts 30°
2026-05-08 18:13 4.23046 -76.14508 32499 ft 453 kts 30°
2026-05-08 18:13 4.25756 -76.12971 32005 ft 454 kts 30°
2026-05-08 18:14 4.28551 -76.11397 31499 ft 456 kts 30°
2026-05-08 18:14 4.31332 -76.09837 30998 ft 458 kts 30°
2026-05-08 18:14 4.34060 -76.08305 30507 ft 457 kts 30°
2026-05-08 18:14 4.36898 -76.06710 29994 ft 457 kts 30°
2026-05-08 18:15 4.39629 -76.05176 29501 ft 458 kts 30°
2026-05-08 18:15 4.42454 -76.03589 28994 ft 460 kts 30°
2026-05-08 18:15 4.45244 -76.02021 28494 ft 461 kts 30°
2026-05-08 18:15 4.48028 -76.00465 27998 ft 462 kts 30°
2026-05-08 18:16 4.50836 -75.98897 27498 ft 461 kts 30°
2026-05-08 18:16 4.53633 -75.97335 26999 ft 462 kts 30°
2026-05-08 18:16 4.56489 -75.95740 26491 ft 463 kts 30°
2026-05-08 18:16 4.59272 -75.94183 25996 ft 464 kts 30°
2026-05-08 18:17 4.62084 -75.92611 25496 ft 461 kts 30°
2026-05-08 18:17 4.64807 -75.91088 25007 ft 457 kts 30°
2026-05-08 18:17 4.67624 -75.89512 24497 ft 452 kts 30°
2026-05-08 18:17 4.70346 -75.87989 23997 ft 447 kts 30°
2026-05-08 18:18 4.73052 -75.86475 23495 ft 443 kts 30°
2026-05-08 18:18 4.75742 -75.84970 22992 ft 441 kts 30°
2026-05-08 18:18 4.78497 -75.83588 22488 ft 441 kts 25°
2026-05-08 18:18 4.81365 -75.82479 21986 ft 438 kts 21°
2026-05-08 18:19 4.84192 -75.81491 21492 ft 434 kts 20°
2026-05-08 18:19 4.86998 -75.80519 20995 ft 426 kts 20°
2026-05-08 18:19 4.89747 -75.79564 20629 ft 414 kts 20°
2026-05-08 18:19 4.92428 -75.78631 20302 ft 403 kts 20°
2026-05-08 18:20 4.95049 -75.77717 19973 ft 392 kts 20°
2026-05-08 18:20 4.97576 -75.76835 19649 ft 382 kts 20°
2026-05-08 18:20 5.00073 -75.75963 19320 ft 373 kts 20°
2026-05-08 18:20 5.02376 -75.75159 19011 ft 365 kts 20°
2026-05-08 18:21 5.04645 -75.74366 18699 ft 358 kts 20°
2026-05-08 18:21 5.06942 -75.73563 18376 ft 350 kts 20°
2026-05-08 18:21 5.09233 -75.72762 18049 ft 343 kts 20°
2026-05-08 18:21 5.11492 -75.71973 17718 ft 337 kts 21°
2026-05-08 18:22 5.13650 -75.71219 17397 ft 331 kts 20°
2026-05-08 18:22 5.15822 -75.70501 17070 ft 325 kts 21°
2026-05-08 18:22 5.17949 -75.69750 16742 ft 319 kts 21°
2026-05-08 18:22 5.20027 -75.69017 16416 ft 314 kts 21°
2026-05-08 18:23 5.22075 -75.68296 16089 ft 309 kts 20°
2026-05-08 18:23 5.24120 -75.67578 15760 ft 307 kts 20°
2026-05-08 18:23 5.26106 -75.66883 15441 ft 305 kts 20°
2026-05-08 18:23 5.28112 -75.66182 15110 ft 302 kts 20°
2026-05-08 18:24 5.30076 -75.65496 14785 ft 298 kts 20°
2026-05-08 18:24 5.32023 -75.64817 14458 ft 294 kts 20°
2026-05-08 18:24 5.33949 -75.64145 14132 ft 292 kts 20°
2026-05-08 18:24 5.35855 -75.63481 13809 ft 291 kts 20°
2026-05-08 18:25 5.37769 -75.62814 13481 ft 289 kts 20°
2026-05-08 18:25 5.39662 -75.62152 13231 ft 285 kts 21°
2026-05-08 18:25 5.41467 -75.61379 13206 ft 280 kts 26°
2026-05-08 18:25 5.43174 -75.60517 13322 ft 281 kts 28°
2026-05-08 18:26 5.44921 -75.59577 13336 ft 286 kts 29°
2026-05-08 18:26 5.46690 -75.58623 13307 ft 289 kts 29°
2026-05-08 18:26 5.48455 -75.57675 13261 ft 288 kts 29°
2026-05-08 18:26 5.50227 -75.56728 13227 ft 288 kts 29°
2026-05-08 18:27 5.51990 -75.55787 13206 ft 288 kts 29°
2026-05-08 18:27 5.53170 -75.55158 13196 ft 288 kts 29°
2026-05-08 18:27 5.55509 -75.53914 13183 ft 287 kts 29°
2026-05-08 18:27 5.57283 -75.52971 13176 ft 287 kts 28°
2026-05-08 18:28 5.59057 -75.52029 13181 ft 284 kts 29°
2026-05-08 18:28 5.60754 -75.51128 13206 ft 273 kts 29°
2026-05-08 18:28 5.62429 -75.50239 13216 ft 264 kts 29°
2026-05-08 18:28 5.64016 -75.49397 13193 ft 258 kts 28°
2026-05-08 18:29 5.65616 -75.48549 13174 ft 256 kts 28°
2026-05-08 18:29 5.67172 -75.47723 13168 ft 258 kts 28°
2026-05-08 18:29 5.68758 -75.46882 13228 ft 260 kts 28°
2026-05-08 18:29 5.70354 -75.46036 13249 ft 262 kts 28°
2026-05-08 18:30 5.71996 -75.45166 13202 ft 268 kts 28°
2026-05-08 18:30 5.73665 -75.44280 13158 ft 270 kts 28°
2026-05-08 18:30 5.75307 -75.43410 13127 ft 269 kts 28°
2026-05-08 18:30 5.76985 -75.42564 13078 ft 269 kts 24°
2026-05-08 18:31 5.78787 -75.42126 12920 ft 268 kts
2026-05-08 18:31 5.80642 -75.42150 12608 ft 270 kts 358°
2026-05-08 18:31 5.82467 -75.42183 12267 ft 269 kts 360°
2026-05-08 18:31 5.84354 -75.42197 11907 ft 261 kts
2026-05-08 18:32 5.86155 -75.42207 11571 ft 246 kts
2026-05-08 18:32 5.87792 -75.42214 11247 ft 229 kts
2026-05-08 18:32 5.89330 -75.42219 10885 ft 216 kts
2026-05-08 18:32 5.90811 -75.42224 10506 ft 206 kts
2026-05-08 18:33 5.92211 -75.42229 10103 ft 199 kts
2026-05-08 18:33 5.93520 -75.42233 9712 ft 192 kts
2026-05-08 18:33 5.94809 -75.42237 9452 ft 178 kts
2026-05-08 18:33 5.96011 -75.42240 9374 ft 165 kts
2026-05-08 18:34 5.97125 -75.42244 9418 ft 161 kts
2026-05-08 18:34 5.98253 -75.42247 9452 ft 164 kts
2026-05-08 18:34 5.99384 -75.42251 9457 ft 168 kts
2026-05-08 18:34 6.00552 -75.42255 9409 ft 168 kts
2026-05-08 18:35 6.01729 -75.42258 9128 ft 168 kts
2026-05-08 18:35 6.02869 -75.42262 8825 ft 158 kts
2026-05-08 18:35 6.03945 -75.42266 8505 ft 151 kts 360°
2026-05-08 18:35 6.04985 -75.42269 8389 ft 147 kts 360°
2026-05-08 18:36 6.05994 -75.42273 8378 ft 148 kts 360°
2026-05-08 18:36 6.07010 -75.42276 8151 ft 147 kts 360°
2026-05-08 18:36 6.08033 -75.42279 7962 ft 148 kts 359°
2026-05-08 18:36 6.08732 -75.42281 7839 ft 149 kts 359°
2026-05-08 18:37 6.09768 -75.42284 7662 ft 151 kts 359°
2026-05-08 18:37 6.11147 -75.42291 7428 ft 149 kts 358°
2026-05-08 18:37 6.12194 -75.42325 7364 ft 148 kts 358°
2026-05-08 18:37 6.13252 -75.42347 7383 ft 153 kts 358°
2026-05-08 18:38 6.14321 -75.42361 7269 ft 153 kts 359°
2026-05-08 18:38 6.15251 -75.42321 7036 ft 0 kts
2026-05-08 18:39 6.15252 -75.42321 7033 ft 3 kts
2026-05-08 18:39 6.15279 -75.42319 7033 ft 16 kts
2026-05-08 18:39 6.15331 -75.42316 7033 ft 26 kts
2026-05-08 18:39 6.15649 -75.42310 7033 ft 41 kts 359°
2026-05-08 18:40 6.15825 -75.42313 7033 ft 37 kts 358°
2026-05-08 18:40 6.16061 -75.42324 7033 ft 30 kts 358°
2026-05-08 18:40 6.16249 -75.42326 7033 ft 24 kts
2026-05-08 18:40 6.16399 -75.42321 7033 ft 19 kts
2026-05-08 18:41 6.16522 -75.42319 7033 ft 18 kts
2026-05-08 18:41 6.16653 -75.42317 7033 ft 19 kts
2026-05-08 18:41 6.16782 -75.42321 7033 ft 18 kts 347°
2026-05-08 18:41 6.16863 -75.42384 7033 ft 13 kts 282°
2026-05-08 18:42 6.16872 -75.42464 7033 ft 10 kts 288°
2026-05-08 18:42 6.16903 -75.42507 7033 ft 6 kts 318°
2026-05-08 18:42 6.16928 -75.42530 7033 ft 7 kts 318°
2026-05-08 18:42 6.16978 -75.42574 7033 ft 12 kts 320°
2026-05-08 18:43 6.17037 -75.42627 7033 ft 11 kts 319°
2026-05-08 18:43 6.17081 -75.42650 7033 ft 4 kts 339°
2026-05-08 18:43 6.17105 -75.42666 7033 ft 3 kts 327°
2026-05-08 18:43 6.17119 -75.42685 7033 ft 0 kts 290°